Location: Costa Valle Imagna
(45.8000°N, 9.5000°E)
Time: 02:51:48
(UTC+00:00)

ADEOS - Pass Details

Date: 17 February 2020
Orbit: 793 x 794 km, 98.9° (Epoch: 03 April)

Event Time Altitude Azimuth Distance (km) Brightness Sun altitude
Rises 04:18:14 0° 7° (N) 3,308 6.9 -22.2°
Reaches altitude 10° 04:20:42 10° 359° (N) 2,374 6.1 -21.8°
Enters shadow 04:24:59 36° 307° (NW) 1,251 4.2 -21.1°
